Flag for Germany Weather past 2 weeks in Gifhorn, Lower Saxony, Germany

Now
57 °F

Passing clouds.


Feels Like: 57 °F
Forecast: 46 / 60 °F
Wind: 5 mph from South

Location: Braunschweig

Current Time: May 29, 2015 at 10:46:59 AM

Latest Report: May 29, 2015 at 10:20 AM


Visibility: N/A

Pressure: 29.89 "Hg

Humidity: 59%

Dew point: 43 °F

Location of GifhornLocation

Historic Weather in Gifhorn — Graph

°F

Gifhorn temperature yesterday

Maximum temperature yesterday: 70 °F (at 3:50 PM)
Minimum temperature yesterday: 52 °F (at 6:50 AM)
Average temperature yesterday: 60 °F

Past Weeks' High & Low Weather Summary

 TemperatureHumidityPressure
High70 °F (May 28, 3:50 PM)100% (May 15, 6:50 AM)30.33 "Hg (May 15, 6:50 AM)
Low37 °F (May 15, 6:50 AM)30% (May 19, 5:20 PM)29.65 "Hg (May 18, 6:50 PM)
Average57 °F61%30.01 "Hg
* Reported May 14 10:50 AM — May 29 9:20 AM, Gifhorn, Weather by CustomWeather, © 2015

Note: Actual official high and low records may vary slightly from our data, if they occured in-between our weather recording intervals... More about our weather records

Advertising

Gifhorn weather history for previous 24 hours

 ConditionsComfort  
Time TempWeatherWind HumidityBarometerVisibility
9:20 AM
Fri, May 29
55 °FPassing clouds.8 mph72%29.92 "HgN/A
8:50 AM54 °FPassing clouds.7 mph82%29.92 "HgN/A
8:20 AM52 °FSunny.5 mph100%29.92 "Hg10 mi
7:50 AM50 °FSunny.3 mph100%29.92 "Hg10 mi
7:20 AM50 °FSunny.3 mph100%29.92 "Hg10 mi
6:50 AM48 °FClear.No wind100%29.92 "Hg6 mi
10:20 PM
Thu, May 28
52 °FScattered clouds.3 mph100%29.92 "HgN/A
9:20 PM54 °FSunny.5 mph100%29.92 "Hg10 mi
8:50 PM54 °FSunny.5 mph100%29.89 "Hg10 mi
8:20 PM54 °FSunny.5 mph100%29.89 "Hg10 mi
7:50 PM54 °FLight rain. Clear.3 mph100%29.89 "HgN/A
7:20 PM54 °FPassing clouds.6 mph100%29.89 "HgN/A
6:50 PM54 °FPassing clouds.9 mph100%29.89 "HgN/A
6:20 PM54 °FLight rain. Mostly cloudy.12 mph94%29.89 "HgN/A
5:50 PM54 °FLight rain. Broken clouds.15 mph94%29.89 "HgN/A
5:20 PM66 °FScattered showers. Broken clouds.16 mph40%29.83 "HgN/A
4:50 PM68 °FPassing clouds.20 mph38%29.83 "HgN/A
4:20 PM70 °FSunny.17 mph35%29.86 "Hg10 mi
3:50 PM70 °FPassing clouds.17 mph35%29.86 "HgN/A
3:20 PM66 °FSunny.14 mph43%29.86 "Hg10 mi
2:50 PM66 °FSunny.17 mph37%29.86 "Hg10 mi
2:20 PM68 °FSunny.18 mph35%29.86 "Hg10 mi
1:50 PM68 °FSunny.17 mph38%29.86 "Hg10 mi
1:20 PM64 °FPassing clouds.13 mph46%29.89 "HgN/A
12:50 PM64 °FPassing clouds.18 mph43%29.89 "HgN/A
12:20 PM64 °FSunny.18 mph46%29.89 "Hg10 mi
11:50 AM63 °FSunny.20 mph52%29.89 "Hg10 mi
11:20 AM61 °FPassing clouds.17 mph52%29.92 "HgN/A
10:50 AM61 °FSunny.16 mph52%29.92 "Hg10 mi
10:20 AM59 °FSunny.15 mph51%29.92 "Hg10 mi
Weather by CustomWeather, © 2015

See weather overviewHow to use our weather pages